This is the latest recevied weather packets stored in our database for station/object G4KVI. If no packets are shown the sender has not sent any weather packets the latest 10 day(s).
| Time | Temp. | Humidity | Pressure | Rain* | Wind** | Luminosity | Snow |
|---|---|---|---|---|---|---|---|
| 1778046903 | 8.33° C | 77% | 1015.5 hPa | 0 mm | - | 44 W/m² | - |
| 1778046603 | 8.33° C | 77% | 1015.7 hPa | 0 mm | - | 40 W/m² | - |
| 1778046303 | 8.33° C | 77% | 1015.6 hPa | 0 mm | - | 36 W/m² | - |
| 1778046003 | 8.33° C | 77% | 1015.6 hPa | 0 mm | - | 32 W/m² | - |
| 1778045703 | 8.33° C | 76% | 1015.6 hPa | 0 mm | - | 28 W/m² | - |
| 1778045403 | 8.33° C | 76% | 1015.8 hPa | 0 mm | - | 24 W/m² | - |
| 1778045103 | 8.33° C | 75% | 1015.6 hPa | 0 mm | - | 19 W/m² | - |
| 1778044803 | 8.33° C | 75% | 1015.5 hPa | 0 mm | - | 17 W/m² | - |
| 1778044503 | 8.33° C | 75% | 1015.6 hPa | 0 mm | - | 15 W/m² | - |
| 1778044203 | 8.33° C | 75% | 1015.5 hPa | 0 mm | - | 12 W/m² | - |
| 1778043903 | 8.33° C | 76% | 1015.6 hPa | 0 mm | - | 9 W/m² | - |
| 1778043603 | 8.33° C | 76% | 1015.4 hPa | 0 mm | - | 6 W/m² | - |
| 1778043303 | 8.33° C | 76% | 1015.6 hPa | 0 mm | - | 5 W/m² | - |
| 1778043003 | 8.33° C | 76% | 1015.5 hPa | 0 mm | - | 4 W/m² | - |
| 1778042703 | 8.33° C | 76% | 1015.5 hPa | 0 mm | - | 3 W/m² | - |
| 1778042403 | 8.89° C | 76% | 1015.4 hPa | 0 mm | - | 2 W/m² | - |
| 1778042103 | 8.89° C | 76% | 1015.4 hPa | 0 mm | - | 1 W/m² | - |
| 1778041803 | 8.89° C | 75% | 1015.3 hPa | 0 mm | - | 0 W/m² | - |
| 1778041503 | 8.89° C | 75% | 1015.4 hPa | 0 mm | - | 0 W/m² | - |
| 1778041203 | 8.89° C | 75% | 1015.2 hPa | 0 mm | - | 0 W/m² | - |
| 1778040903 | 8.89° C | 75% | 1015.2 hPa | 0 mm | - | 0 W/m² | - |
| 1778040603 | 8.89° C | 75% | 1015.4 hPa | 0 mm | - | 0 W/m² | - |
| 1778040303 | 8.89° C | 76% | 1015.4 hPa | 0 mm | - | 0 W/m² | - |
| 1778040003 | 8.89° C | 76% | 1015.3 hPa | 0 mm | - | 0 W/m² | - |
| 1778039703 | 8.89° C | 76% | 1015.3 hPa | 0 mm | - | 0 W/m² | - |
* Rain latest hour (hover to see other rain measurements)
** Current wind speed in m/s (hover to see current wind gust speed)